Weather reports worldwide

Advertisment
Treviso/Istrana, Italy (16098): temperature & dewpoint: 11.07.2019 07:00:00 - 17.07.2019 07:00:00 (CEST)Treviso/Istrana, Italy (16098): wind speed: 11.07.2019 07:00:00 - 17.07.2019 07:00:00 (CEST)Treviso/Istrana, Italy (16098): wind direction: 11.07.2019 07:00:00 - 17.07.2019 07:00:00 (CEST)Treviso/Istrana, Italy (16098): reduced air pressure: 11.07.2019 07:00:00 - 17.07.2019 07:00:00 (CEST)Treviso/Istrana, Italy (16098): visibility: 11.07.2019 07:00:00 - 17.07.2019 07:00:00 (CEST)
Date & Time tt [°C] td [°C] ff [km/h] ff [kn] dd ppp [hPa] vv [km]
17.07.2019 07:00:00 21,0 18,4 0 0 N 1013,2 20
17.07.2019 06:00:00 17,8 17,3 0 0 N 1013,3 15
17.07.2019 05:00:00 17,8 17,7 0 0 N 1012,9 15
17.07.2019 04:00:00 19,2 18,9 0 0 N 1012,9 15
17.07.2019 03:00:00 20,0 19,7 0 0 N 1012,8 15
17.07.2019 02:00:00 20,4 -30,0 0 0 N 1013,4 -
17.07.2019 01:00:00 20,2 20,0 0 0 N 1013,3 15
17.07.2019 00:00:00 21,8 19,9 0 0 N 1012,9 15
16.07.2019 23:00:00 22,2 19,4 0 0 N 1012,8 15
16.07.2019 22:00:00 24,2 18,4 0 0 N 1012,7 20
16.07.2019 21:00:00 26,0 16,6 0 0 N 1012,2 20
16.07.2019 20:00:00 27,2 15,3 8 4 SSW 1012,1 15
16.07.2019 19:00:00 28,0 15,0 9 5 S 1012,1 15
16.07.2019 18:00:00 28,0 14,3 9 5 SW 1012,3 20
16.07.2019 17:00:00 28,2 15,5 9 5 S 1012,8 20
16.07.2019 16:00:00 27,6 15,0 9 5 SW 1012,9 20
16.07.2019 15:00:00 28,0 16,0 5 3 WNW 1013,2 20
16.07.2019 14:00:00 27,6 16,3 8 4 SSW 1013,4 30
16.07.2019 13:00:00 27,0 15,7 5 3 NNE 1013,8 30
16.07.2019 12:00:00 27,0 15,7 5 3 SSE 1013,7 30
16.07.2019 11:00:00 26,6 15,7 0 0 N 1013,8 30
16.07.2019 10:00:00 25,4 15,1 11 6 NNE 1013,8 30
16.07.2019 09:00:00 23,2 18,5 9 5 N 1013,7 30
16.07.2019 08:00:00 21,4 18,2 9 5 N 1012,4 30
16.07.2019 07:00:00 19,4 17,4 9 5 N 1012,5 30
16.07.2019 06:00:00 18,4 16,7 13 7 NW 1012,5 25
16.07.2019 05:00:00 18,6 16,9 9 5 NNW 1012,5 25
16.07.2019 04:00:00 19,0 17,3 9 5 NNE 1012,5 25
16.07.2019 03:00:00 20,2 18,5 11 6 N 1012,5 25
16.07.2019 02:00:00 20,2 18,5 5 3 NNW 1012,3 10
16.07.2019 01:00:00 20,2 18,5 4 2 N 1012,3 25
16.07.2019 00:00:00 20,4 18,4 0 0 N 1012,0 25
15.07.2019 23:00:00 20,4 19,4 0 0 N 1012,0 25
15.07.2019 22:00:00 20,6 19,3 8 4 N 1012,0 25
15.07.2019 21:00:00 22,0 19,7 0 0 N 1011,7 30
15.07.2019 20:00:00 22,0 18,6 13 7 N 1011,7 30
15.07.2019 19:00:00 26,4 16,9 15 8 NNW 1011,2 25
15.07.2019 18:00:00 28,0 16,6 0 0 N 1010,8 15
15.07.2019 17:00:00 28,2 18,9 5 3 SSE 1010,8 25
15.07.2019 16:00:00 28,2 18,6 5 3 ESE 1010,9 30
15.07.2019 15:00:00 27,2 17,7 11 6 ENE 1011,2 30
15.07.2019 14:00:00 25,8 17,7 13 7 ENE 1011,1 30
15.07.2019 13:00:00 24,6 18,3 16 9 ENE 1011,3 30
15.07.2019 12:00:00 23,6 18,0 15 8 NE 1011,2 30
15.07.2019 11:00:00 22,8 17,0 16 9 NNE 1011,3 30
15.07.2019 10:00:00 22,0 16,7 18 10 NE 1011,3 30
15.07.2019 09:00:00 21,6 17,0 18 10 NE 1011,2 25
15.07.2019 08:00:00 20,2 16,7 18 10 ENE 1010,7 25
15.07.2019 07:00:00 21,0 17,4 0 0 N 1010,5 25
15.07.2019 06:00:00 19,6 17,0 18 10 NNE 1010,4 15
15.07.2019 05:00:00 19,6 18,3 9 5 NNE 1011,1 15
15.07.2019 04:00:00 19,6 17,9 11 6 NNE 1011,1 15
15.07.2019 03:00:00 19,4 19,2 13 7 N 1011,7 15
15.07.2019 02:00:00 20,0 18,3 8 4 N 1011,3 15
15.07.2019 01:00:00 20,0 18,3 2 1 W 1011,1 15
15.07.2019 00:00:00 20,0 17,4 9 5 NE 1011,3 15
14.07.2019 23:00:00 21,0 18,4 13 7 ENE 1011,1 20
14.07.2019 22:00:00 21,6 17,0 11 6 ENE 1011,1 15
14.07.2019 21:00:00 23,0 18,3 18 10 NE 1010,0 25
14.07.2019 20:00:00 26,0 18,9 5 3 SE 1009,9 30
14.07.2019 19:00:00 26,6 18,2 8 4 SSE 1010,2 30
14.07.2019 18:00:00 27,2 17,4 5 3 ESE 1010,0 30
14.07.2019 17:00:00 27,2 18,2 5 3 SSE 1010,4 30
14.07.2019 16:00:00 27,4 18,4 5 3 SSE 1010,3 30
14.07.2019 15:00:00 27,4 17,6 8 4 SSE 1011,6 30
14.07.2019 14:00:00 26,4 18,0 4 2 WNW 1012,0 30
14.07.2019 13:00:00 26,0 18,2 5 3 SW 1012,4 30
14.07.2019 12:00:00 24,4 15,6 4 2 SSE 1012,6 30
14.07.2019 11:00:00 23,4 17,2 0 0 N 1012,6 30
14.07.2019 10:00:00 22,4 18,4 0 0 N 1012,4 30
14.07.2019 09:00:00 20,0 17,2 5 3 NNE 1012,9 30
14.07.2019 08:00:00 19,8 17,9 2 1 SSE 1012,2 45
14.07.2019 07:00:00 15,8 14,3 2 1 NNE 1012,0 40
14.07.2019 06:00:00 15,2 13,7 2 1 SSW 1012,0 30
14.07.2019 05:00:00 15,4 13,9 4 2 ENE 1011,9 25
14.07.2019 04:00:00 16,0 14,5 2 1 WNW 1012,0 20
14.07.2019 03:00:00 16,2 14,7 4 2 WNW 1012,2 25
14.07.2019 02:00:00 16,4 15,1 4 2 W 1012,7 25
14.07.2019 01:00:00 17,0 15,5 2 1 NE 1013,0 25
14.07.2019 00:00:00 17,6 16,1 2 1 WNW 1013,0 25
13.07.2019 23:00:00 17,8 16,3 8 4 W 1012,9 25
13.07.2019 22:00:00 18,0 16,5 9 5 SW 1012,9 25
13.07.2019 21:00:00 17,8 16,8 0 0 N 1012,2 20
13.07.2019 20:00:00 17,0 16,2 11 6 ENE 1011,9 10
13.07.2019 19:00:00 18,0 17,7 0 0 N 1011,2 2,0
13.07.2019 18:00:00 27,0 21,1 11 6 S 1008,9 10
13.07.2019 17:00:00 27,0 19,9 11 6 S 1008,9 10
13.07.2019 16:00:00 27,0 21,1 13 7 SSW 1009,3 12
13.07.2019 15:00:00 27,6 21,2 8 4 SSW 1009,7 12
13.07.2019 14:00:00 27,6 20,4 5 3 ESE 1010,0 12
13.07.2019 13:00:00 27,4 21,4 8 4 SSE 1010,0 15
13.07.2019 12:00:00 26,2 21,6 0 0 N 1010,6 20
13.07.2019 11:00:00 25,0 20,3 8 4 S 1010,2 20
13.07.2019 10:00:00 23,6 19,1 11 6 E 1009,9 20
13.07.2019 09:00:00 23,0 19,4 9 5 E 1010,0 20
13.07.2019 08:00:00 21,2 19,1 8 4 N 1009,8 20
13.07.2019 07:00:00 19,0 17,5 11 6 N 1010,0 20
13.07.2019 06:00:00 10,0 8,9 5 3 NNW 1011,4 12
13.07.2019 05:00:00 20,0 19,2 8 4 NNW 1011,1 12
13.07.2019 04:00:00 20,0 19,2 9 5 NNW 1010,3 10
13.07.2019 03:00:00 20,0 19,7 8 4 NW 1010,5 10
13.07.2019 02:00:00 20,0 19,7 5 3 NNW 1011,4 6
13.07.2019 01:00:00 20,0 19,4 9 5 NNE 1011,5 15
13.07.2019 00:00:00 21,0 20,3 0 0 N 1011,1 15
12.07.2019 23:00:00 21,2 20,4 5 3 NNW 1010,9 15
12.07.2019 22:00:00 21,6 20,8 5 3 NNW 1010,9 12
12.07.2019 21:00:00 22,0 20,3 5 3 NNW 1010,9 12
12.07.2019 20:00:00 23,6 22,4 4 2 SSW 1011,1 15
12.07.2019 19:00:00 23,4 21,9 2 1 WNW 1011,2 15
12.07.2019 18:00:00 25,8 23,9 4 2 ENE 1011,4 7
12.07.2019 17:00:00 26,4 19,3 5 3 NE 1010,9 15
12.07.2019 16:00:00 27,0 19,9 5 3 E 1011,0 20
12.07.2019 15:00:00 27,2 20,5 8 4 S 1011,6 20
12.07.2019 14:00:00 26,2 19,6 5 3 N 1012,4 20
12.07.2019 13:00:00 25,6 19,2 8 4 SW 1012,7 20
12.07.2019 12:00:00 24,6 19,4 5 3 SE 1013,0 20
12.07.2019 11:00:00 23,8 18,2 5 3 ESE 1013,1 20
12.07.2019 10:00:00 22,8 19,8 5 3 NNE 1013,3 20
12.07.2019 09:00:00 21,0 19,5 8 4 NNE 1013,5 20
12.07.2019 08:00:00 19,6 18,1 0 0 N 1013,3 10
12.07.2019 07:00:00 17,8 16,3 0 0 N 1013,1 6
12.07.2019 06:00:00 17,4 16,1 0 0 N 1013,0 0,4
12.07.2019 05:00:00 17,8 16,5 0 0 N 1013,0 0,4
12.07.2019 04:00:00 18,4 17,1 0 0 N 1012,9 1,0
12.07.2019 03:00:00 18,8 17,8 0 0 N 1013,0 4,0
12.07.2019 02:00:00 19,2 18,2 0 0 N 1013,1 12
12.07.2019 01:00:00 19,8 19,0 8 4 NNE 1013,4 10
12.07.2019 00:00:00 20,0 20,0 9 5 NNE 1013,6 12
11.07.2019 23:00:00 20,6 20,4 16 9 NE 1013,5 15
11.07.2019 22:00:00 21,8 19,4 8 4 NNE 1013,2 15
11.07.2019 21:00:00 22,4 16,2 13 7 NE 1012,8 15
11.07.2019 20:00:00 24,2 16,2 8 4 E 1012,7 15
11.07.2019 19:00:00 23,8 15,6 8 4 E 1012,6 15
11.07.2019 18:00:00 25,0 18,0 8 4 SSE 1012,7 12
11.07.2019 17:00:00 25,0 18,0 5 3 ESE 1013,2 12
11.07.2019 16:00:00 24,8 19,0 9 5 NNW 1013,2 12
11.07.2019 15:00:00 25,4 18,4 8 4 ESE 1013,4 12
11.07.2019 14:00:00 25,4 18,4 5 3 ESE 1014,0 15
11.07.2019 13:00:00 25,0 18,0 5 3 NNE 1014,4 15
11.07.2019 12:00:00 24,8 17,5 0 0 N 1014,7 20
11.07.2019 11:00:00 23,2 15,5 9 5 ENE 1015,0 20
11.07.2019 10:00:00 22,0 14,4 9 5 ENE 1015,1 20
11.07.2019 09:00:00 22,0 15,6 0 0 N 1015,0 20
11.07.2019 08:00:00 21,4 16,2 11 6 NNE 1014,8 20
11.07.2019 07:00:00 20,4 15,8 13 7 NNE 1014,5 20

tt = temperature
td = dewpoint
ff = wind speed
dd = wind direction
ppp = reduced air pressure
vv = visibility

Next stations